Portada
METAR-TAF:

METAR-TAF

Aeroports :

Cheraw, Carolina del Sud, Estats Units d'Amèrica

latitud: 34-42-46N, longitud: 079-57-25W, altitud: 73 m

Observació

L'informe es va fer fa 29 minuts, a les 05:15 UTC
Vent calma
Temperatura 17°C
Humitat 100%
Pressió 1021 hPa
Visibilitat: 12.9 km
Escasses núvols a una alçada de 3900 ft
Núvols disperses a una alçada de 5000 ft
Cel ennuvolat a una alçada de 6500 ft

METAR: KCQW 230515Z AUTO 00000KT 8SM FEW039 SCT050 BKN065 17/17 A3016 RMK AO2

Hora: 01:44 (05:44 UTC)


TAF: manca

Observacions i pronòstics meteorològics de més de 4000 aeroports (METAR i TAF).

Les estacions disponibles són els punts grocs i vermells al mapa.

Posi el ratolí al punt desitjat per veure el nom de l'estació.

Feu clic per veure les observacions i els pronòstics meteorològics.

Per canviar el mapa: feu clic els botons verds amb una creu de color negre per apropar; al botó verd amb un guió per allunyar la imatge; o en les fletxes verdes per a mapes adjacents.


METAR-TAF: